Tracking 20942 objects as of 14-Jul-2020
HD Live streaming from Space Station
objects crossing your sky now

SL-8 DEB

Track SL-8 DEB now!
10-day predictions


NORAD ID: 21157
Int'l Code: 1991-009U
Perigee: 1,443.6 km
Apogee: 1,720.1 km
Inclination: 73.9 °
Period: 117.6 minutes
Semi major axis: 7952 km
RCS: 0.2621 m2 (medium)
Launch date: February 12, 1991
Source: Commonwealth of Independent States (former USSR) (CIS)
Launch site: PLESETSK MISSILE AND SPACE COMPLEX (PKMTR)

Note: This is SATELLITE DEBRIS
aabbcc
Your satellite tracking list
Your tracking list is empty




NASA's NSSDC Master Catalog

Two Line Element Set (TLE):
1 21157U 91009U   20195.76054014 -.00000021 +00000-0 -60964-4 0  9993
2 21157 073.9478 200.5515 0173838 086.1156 083.5686 12.24104083311894
Source of the keplerian elements: AFSPC